Location: Township of Marena
(38.1747°N, 99.6798°W)
Time: 12:13:51
(UTC+00:00)

Cosmos 2315 Rocket - Pass Details

Date: 26 October 2020
Orbit: 966 x 1002 km, 82.9° (Epoch: 24 November)

Event Time Altitude Azimuth Distance (km) Brightness Sun altitude
Rises 01:52:23 0° 177° (S) 3,656 6.9 -25.3°
Reaches altitude 10° 01:54:53 10° 175° (S) 2,708 6.2 -25.8°
Enters shadow 01:59:21 48° 155° (SSE) 1,247 4.3 -26.6°
Exits shadow 02:04:24 28° 19° (NNE) 1,731 5.1 -27.6°
Drops below altitude 10° 02:07:10 10° 12° (NNE) 2,713 6.3 -28.2°
Sets 02:09:42 0° 10° (N) 3,664 7.0 -28.7°
